Time,TemperatureF,DewpointF,PressureIn,WindDirection,WindDirectionDegrees,WindSpeedMPH,WindSpeedGustMPH,Humidity,HourlyPrecipIn,Conditions,Clouds,dailyrainin,SoftwareType,DateUTC
2013-06-17 00:01:00,73.2,67.4,29.90,South,186,0.0,0.0,82,0.00,,OVC250,0.00,VWS V14.01,2013-06-17 05:01:00,
2013-06-17 00:06:00,73.1,67.6,29.89,South,186,0.0,1.0,83,0.00,,OVC250,0.00,VWS V14.01,2013-06-17 05:06:00,
2013-06-17 00:11:00,73.1,67.6,29.89,South,186,1.0,1.0,83,0.00,,OVC250,0.00,VWS V14.01,2013-06-17 05:11:00,
2013-06-17 00:16:00,73.2,67.4,29.88,South,186,2.0,3.0,82,0.00,,OVC250,0.00,VWS V14.01,2013-06-17 05:16:00,
2013-06-17 00:22:00,73.2,67.4,29.88,South,189,0.0,1.0,82,0.00,,OVC250,0.00,VWS V14.01,2013-06-17 05:22:00,
2013-06-17 00:27:00,73.1,67.6,29.88,South,189,0.0,1.0,83,0.00,,OVC250,0.00,VWS V14.01,2013-06-17 05:27:00,
2013-06-17 00:32:00,72.8,67.3,29.88,South,189,0.0,0.0,83,0.00,,OVC250,0.00,VWS V14.01,2013-06-17 05:32:00,
2013-06-17 00:37:00,72.6,67.2,29.88,South,189,0.0,0.0,83,0.00,,OVC250,0.00,VWS V14.01,2013-06-17 05:37:00,
2013-06-17 00:42:00,72.5,67.4,29.89,South,189,0.0,0.0,84,0.00,,OVC250,0.00,VWS V14.01,2013-06-17 05:42:00,
2013-06-17 00:47:00,72.4,67.3,29.89,South,189,0.0,0.0,84,0.00,,OVC250,0.00,VWS V14.01,2013-06-17 05:47:00,
2013-06-17 00:52:00,72.3,67.2,29.88,South,189,0.0,1.0,84,0.00,,OVC250,0.00,VWS V14.01,2013-06-17 05:52:00,
2013-06-17 00:57:00,72.2,67.1,29.88,South,189,0.0,0.0,84,0.00,,OVC250,0.00,VWS V14.01,2013-06-17 05:57:00,
2013-06-17 01:02:00,72.1,67.0,29.88,South,189,0.0,0.0,84,0.00,,OVC250,0.00,VWS V14.01,2013-06-17 06:02:00,
2013-06-17 01:07:00,71.9,67.2,29.88,South,189,0.0,0.0,85,0.00,,OVC250,0.00,VWS V14.01,2013-06-17 06:07:00,
2013-06-17 01:12:00,71.7,66.9,29.88,South,189,0.0,0.0,85,0.00,,OVC250,0.00,VWS V14.01,2013-06-17 06:12:00,
2013-06-17 01:17:00,71.6,66.9,29.88,South,189,0.0,0.0,85,0.00,,OVC250,0.00,VWS V14.01,2013-06-17 06:17:00,
2013-06-17 01:22:00,71.7,67.3,29.88,South,189,0.0,1.0,86,0.00,,OVC250,0.00,VWS V14.01,2013-06-17 06:22:00,
2013-06-17 01:27:00,71.8,67.4,29.88,South,189,0.0,0.0,86,0.00,,OVC250,0.00,VWS V14.01,2013-06-17 06:27:00,
2013-06-17 01:32:00,71.7,67.3,29.89,South,189,0.0,0.0,86,0.00,,OVC250,0.00,VWS V14.01,2013-06-17 06:32:00,
2013-06-17 01:37:00,71.5,67.1,29.89,South,189,0.0,0.0,86,0.00,,OVC250,0.00,VWS V14.01,2013-06-17 06:37:00,
2013-06-17 01:42:00,71.3,67.2,29.88,South,189,0.0,0.0,87,0.00,,OVC250,0.00,VWS V14.01,2013-06-17 06:42:00,
2013-06-17 01:47:00,71.1,67.0,29.88,South,189,0.0,0.0,87,0.00,,OVC250,0.00,VWS V14.01,2013-06-17 06:47:00,
2013-06-17 01:52:00,70.9,67.2,29.88,South,189,0.0,0.0,88,0.00,,OVC250,0.00,VWS V14.01,2013-06-17 06:52:00,
2013-06-17 01:57:00,70.6,66.9,29.88,South,189,0.0,0.0,88,0.00,,OVC250,0.00,VWS V14.01,2013-06-17 06:57:00,
2013-06-17 02:02:00,70.5,66.8,29.88,South,189,0.0,0.0,88,0.00,,OVC250,0.00,VWS V14.01,2013-06-17 07:02:00,
2013-06-17 02:07:00,70.4,67.0,29.88,South,189,0.0,1.0,89,0.00,,OVC250,0.00,VWS V14.01,2013-06-17 07:07:00,
2013-06-17 02:12:00,70.4,67.0,29.88,South,189,0.0,1.0,89,0.00,,OVC250,0.00,VWS V14.01,2013-06-17 07:12:00,
2013-06-17 02:17:00,70.4,67.0,29.87,South,189,0.0,2.0,89,0.00,,OVC250,0.00,VWS V14.01,2013-06-17 07:17:00,
2013-06-17 02:22:00,70.4,67.0,29.87,South,189,0.0,1.0,89,0.00,,OVC250,0.00,VWS V14.01,2013-06-17 07:22:00,
2013-06-17 02:27:00,70.3,66.9,29.87,South,189,0.0,0.0,89,0.00,,OVC250,0.00,VWS V14.01,2013-06-17 07:27:00,
2013-06-17 02:32:00,70.2,66.8,29.87,South,189,0.0,1.0,89,0.00,,OVC250,0.00,VWS V14.01,2013-06-17 07:32:00,
2013-06-17 02:37:00,70.1,66.7,29.87,South,189,0.0,0.0,89,0.00,,OVC250,0.00,VWS V14.01,2013-06-17 07:37:00,
2013-06-17 02:42:00,70.0,66.6,29.88,South,189,0.0,0.0,89,0.00,,OVC250,0.00,VWS V14.01,2013-06-17 07:42:00,
2013-06-17 02:47:00,69.8,66.4,29.88,South,189,0.0,0.0,89,0.00,,OVC250,0.00,VWS V14.01,2013-06-17 07:47:00,
2013-06-17 02:52:00,69.7,66.6,29.88,South,189,0.0,1.0,90,0.00,,OVC250,0.00,VWS V14.01,2013-06-17 07:52:00,
2013-06-17 02:57:00,69.7,66.6,29.88,South,189,0.0,1.0,90,0.00,,OVC250,0.00,VWS V14.01,2013-06-17 07:57:00,
2013-06-17 03:02:00,69.6,66.5,29.88,South,189,0.0,1.0,90,0.00,,OVC250,0.00,VWS V14.01,2013-06-17 08:02:00,
2013-06-17 03:07:00,69.6,66.5,29.88,South,189,2.0,2.0,90,0.00,,OVC250,0.00,VWS V14.01,2013-06-17 08:07:00,
2013-06-17 03:12:00,69.6,66.5,29.88,South,189,1.0,2.0,90,0.00,,OVC250,0.00,VWS V14.01,2013-06-17 08:12:00,
2013-06-17 03:17:00,69.6,66.5,29.88,South,189,0.0,1.0,90,0.00,,OVC250,0.00,VWS V14.01,2013-06-17 08:17:00,
2013-06-17 03:22:00,69.5,66.4,29.88,South,189,2.0,2.0,90,0.00,,OVC250,0.00,VWS V14.01,2013-06-17 08:22:00,
2013-06-17 03:27:00,69.4,66.3,29.88,South,189,0.0,0.0,90,0.00,,OVC250,0.00,VWS V14.01,2013-06-17 08:27:00,
2013-06-17 03:32:00,69.2,66.5,29.88,South,189,0.0,0.0,91,0.00,,OVC250,0.00,VWS V14.01,2013-06-17 08:32:00,
2013-06-17 03:37:00,69.1,66.4,29.88,South,189,0.0,1.0,91,0.00,,OVC250,0.00,VWS V14.01,2013-06-17 08:37:00,
2013-06-17 03:42:00,69.0,66.3,29.88,South,189,0.0,1.0,91,0.00,,OVC250,0.00,VWS V14.01,2013-06-17 08:42:00,
2013-06-17 03:47:00,69.0,66.3,29.88,South,189,0.0,1.0,91,0.00,,OVC250,0.00,VWS V14.01,2013-06-17 08:47:00,
2013-06-17 03:52:00,68.9,66.2,29.88,South,189,0.0,1.0,91,0.00,,BKN250,0.00,VWS V14.01,2013-06-17 08:52:00,
2013-06-17 03:57:00,68.9,66.2,29.88,South,189,1.0,1.0,91,0.00,,BKN250,0.00,VWS V14.01,2013-06-17 08:57:00,
2013-06-17 04:03:00,68.8,66.1,29.88,South,189,1.0,1.0,91,0.00,,BKN250,0.00,VWS V14.01,2013-06-17 09:03:00,
2013-06-17 04:08:00,68.8,66.4,29.88,South,189,2.0,2.0,92,0.00,,BKN250,0.00,VWS V14.01,2013-06-17 09:08:00,
2013-06-17 04:13:00,68.7,66.3,29.88,NNE,24,2.0,3.0,92,0.00,,BKN250,0.00,VWS V14.01,2013-06-17 09:13:00,
2013-06-17 04:18:00,68.5,66.1,29.88,NNE,21,2.0,4.0,92,0.00,,BKN250,0.00,VWS V14.01,2013-06-17 09:18:00,
2013-06-17 04:23:00,68.4,66.0,29.88,NNE,21,0.0,2.0,92,0.00,,BKN250,0.00,VWS V14.01,2013-06-17 09:23:00,
2013-06-17 04:28:00,68.3,65.9,29.88,NNE,21,0.0,1.0,92,0.00,,BKN250,0.00,VWS V14.01,2013-06-17 09:28:00,
2013-06-17 04:33:00,68.3,65.9,29.88,NNE,21,1.0,3.0,92,0.00,,BKN250,0.00,VWS V14.01,2013-06-17 09:33:00,
2013-06-17 04:38:00,68.2,65.8,29.88,NNE,21,0.0,2.0,92,0.00,,BKN250,0.00,VWS V14.01,2013-06-17 09:38:00,
2013-06-17 04:43:00,68.1,65.7,29.88,NNE,21,0.0,0.0,92,0.00,,BKN250,0.00,VWS V14.01,2013-06-17 09:43:00,
2013-06-17 04:48:00,68.0,65.6,29.88,NNE,21,0.0,0.0,92,0.00,,BKN250,0.00,VWS V14.01,2013-06-17 09:48:00,
2013-06-17 04:53:00,67.9,65.5,29.88,NNE,21,1.0,2.0,92,0.00,,BKN250,0.00,VWS V14.01,2013-06-17 09:53:00,
2013-06-17 04:58:00,67.9,65.5,29.88,NNE,21,0.0,2.0,92,0.00,,BKN250,0.00,VWS V14.01,2013-06-17 09:58:00,
2013-06-17 05:03:00,67.8,65.4,29.88,NNE,21,0.0,0.0,92,0.00,,BKN250,0.00,VWS V14.01,2013-06-17 10:03:00,
2013-06-17 05:08:00,67.8,65.4,29.89,NNE,21,0.0,0.0,92,0.00,,BKN250,0.00,VWS V14.01,2013-06-17 10:08:00,
2013-06-17 05:13:00,67.7,65.6,29.89,NNE,21,0.0,0.0,93,0.00,,BKN250,0.00,VWS V14.01,2013-06-17 10:13:00,
2013-06-17 05:18:00,67.8,65.7,29.90,NNE,21,0.0,0.0,93,0.00,,BKN250,0.00,VWS V14.01,2013-06-17 10:18:00,
2013-06-17 05:23:00,67.8,65.7,29.90,NNE,21,0.0,0.0,93,0.00,,BKN250,0.00,VWS V14.01,2013-06-17 10:23:00,
2013-06-17 05:28:00,67.8,65.7,29.90,NNE,21,0.0,0.0,93,0.00,,BKN250,0.00,VWS V14.01,2013-06-17 10:28:00,
2013-06-17 05:33:00,67.8,65.7,29.90,NNE,21,0.0,0.0,93,0.00,,BKN250,0.00,VWS V14.01,2013-06-17 10:33:00,
2013-06-17 05:38:00,67.9,65.8,29.90,NNE,21,0.0,0.0,93,0.00,,BKN250,0.00,VWS V14.01,2013-06-17 10:38:00,
2013-06-17 05:43:00,67.9,65.8,29.91,NNE,21,0.0,0.0,93,0.00,,BKN250,0.00,VWS V14.01,2013-06-17 10:43:00,
2013-06-17 05:48:00,67.9,65.8,29.91,NNE,21,0.0,0.0,93,0.00,,BKN250,0.00,VWS V14.01,2013-06-17 10:48:00,
2013-06-17 05:53:00,67.9,65.8,29.91,NNE,21,0.0,0.0,93,0.00,,BKN250,0.00,VWS V14.01,2013-06-17 10:53:00,
2013-06-17 05:58:00,67.9,65.8,29.91,NNE,21,0.0,0.0,93,0.00,,BKN250,0.00,VWS V14.01,2013-06-17 10:58:00,
2013-06-17 06:03:00,67.9,65.8,29.92,NNE,21,0.0,0.0,93,0.00,,BKN250,0.00,VWS V14.01,2013-06-17 11:03:00,
2013-06-17 06:08:00,67.9,65.8,29.92,NNE,21,0.0,0.0,93,0.00,,BKN250,0.00,VWS V14.01,2013-06-17 11:08:00,
2013-06-17 06:13:00,68.0,65.9,29.92,NNE,21,0.0,0.0,93,0.00,,BKN250,0.00,VWS V14.01,2013-06-17 11:13:00,
2013-06-17 06:18:00,68.1,66.0,29.92,NNE,21,0.0,0.0,93,0.00,,BKN250,0.00,VWS V14.01,2013-06-17 11:18:00,
2013-06-17 06:23:00,68.1,66.0,29.92,NNE,21,0.0,0.0,93,0.00,,BKN250,0.00,VWS V14.01,2013-06-17 11:23:00,
2013-06-17 06:29:00,68.0,65.9,29.92,NNE,20,0.0,0.0,93,0.00,,BKN250,0.00,VWS V14.01,2013-06-17 11:29:00,
2013-06-17 06:34:00,68.0,65.9,29.92,NNE,21,0.0,0.0,93,0.00,,BKN250,0.00,VWS V14.01,2013-06-17 11:34:00,
2013-06-17 06:39:00,68.1,66.0,29.92,NNE,21,0.0,0.0,93,0.00,,BKN250,0.00,VWS V14.01,2013-06-17 11:39:00,
2013-06-17 06:44:00,68.4,66.3,29.92,NNE,21,0.0,0.0,93,0.00,,BKN250,0.00,VWS V14.01,2013-06-17 11:44:00,
2013-06-17 06:49:00,68.5,66.4,29.92,NNE,20,0.0,0.0,93,0.00,,BKN250,0.00,VWS V14.01,2013-06-17 11:49:00,
2013-06-17 06:54:00,68.8,66.7,29.92,NNE,21,0.0,0.0,93,0.00,,BKN250,0.00,VWS V14.01,2013-06-17 11:54:00,
2013-06-17 06:59:00,69.0,66.6,29.92,NNE,21,0.0,0.0,92,0.00,,BKN250,0.00,VWS V14.01,2013-06-17 11:59:00,
2013-06-17 07:04:00,69.2,66.8,29.92,NNE,21,0.0,0.0,92,0.00,,BKN250,0.00,VWS V14.01,2013-06-17 12:04:00,
2013-06-17 07:09:00,69.4,67.0,29.92,NNE,21,0.0,0.0,92,0.00,,BKN250,0.00,VWS V14.01,2013-06-17 12:09:00,
2013-06-17 07:14:00,69.5,67.1,29.92,NNE,21,1.0,3.0,92,0.00,,BKN250,0.00,VWS V14.01,2013-06-17 12:14:00,
2013-06-17 07:19:00,69.8,67.4,29.92,NNE,21,1.0,1.0,92,0.00,,BKN250,0.00,VWS V14.01,2013-06-17 12:19:00,
2013-06-17 07:24:00,69.9,67.5,29.93,NNE,21,0.0,1.0,92,0.00,,BKN250,0.00,VWS V14.01,2013-06-17 12:24:00,
2013-06-17 07:29:00,70.0,67.6,29.93,NNE,21,0.0,0.0,92,0.00,,BKN250,0.00,VWS V14.01,2013-06-17 12:29:00,
2013-06-17 07:34:00,70.1,67.4,29.93,NNE,21,0.0,0.0,91,0.00,,BKN250,0.00,VWS V14.01,2013-06-17 12:34:00,
2013-06-17 07:39:00,70.3,67.9,29.93,NNE,21,0.0,0.0,92,0.00,,BKN250,0.00,VWS V14.01,2013-06-17 12:39:00,
2013-06-17 07:44:00,70.4,68.0,29.93,NNE,21,0.0,0.0,92,0.00,,BKN250,0.00,VWS V14.01,2013-06-17 12:44:00,
2013-06-17 07:49:00,70.7,68.3,29.93,NNE,20,0.0,0.0,92,0.00,,BKN250,0.00,VWS V14.01,2013-06-17 12:49:00,
2013-06-17 07:54:00,71.0,68.6,29.92,NNE,21,0.0,0.0,92,0.00,,BKN250,0.00,VWS V14.01,2013-06-17 12:54:00,
2013-06-17 07:59:00,71.5,68.7,29.92,NNE,21,0.0,0.0,91,0.00,,BKN250,0.00,VWS V14.01,2013-06-17 12:59:00,
2013-06-17 08:04:00,72.0,68.9,29.93,NNE,21,0.0,0.0,90,0.00,,BKN250,0.00,VWS V14.01,2013-06-17 13:04:00,
2013-06-17 08:09:00,72.8,69.7,29.93,NNE,21,0.0,1.0,90,0.00,,BKN250,0.00,VWS V14.01,2013-06-17 13:09:00,
2013-06-17 08:14:00,73.6,68.8,29.93,NNE,21,0.0,0.0,85,0.00,,BKN250,0.00,VWS V14.01,2013-06-17 13:14:00,
2013-06-17 08:19:00,74.4,69.3,29.93,NNE,21,0.0,0.0,84,0.00,,BKN250,0.00,VWS V14.01,2013-06-17 13:19:00,
2013-06-17 08:24:00,75.0,69.5,29.93,NNE,21,0.0,0.0,83,0.00,,BKN250,0.00,VWS V14.01,2013-06-17 13:24:00,
2013-06-17 08:29:00,75.3,69.4,29.93,NNE,21,1.0,1.0,82,0.00,,BKN250,0.00,VWS V14.01,2013-06-17 13:29:00,
2013-06-17 08:34:00,75.7,69.8,29.93,NNE,21,0.0,0.0,82,0.00,,BKN250,0.00,VWS V14.01,2013-06-17 13:34:00,
2013-06-17 08:39:00,76.0,70.1,29.93,NNE,21,1.0,1.0,82,0.00,,BKN250,0.00,VWS V14.01,2013-06-17 13:39:00,
2013-06-17 08:44:00,75.9,69.7,29.93,NNE,20,0.0,0.0,81,0.00,,BKN250,0.00,VWS V14.01,2013-06-17 13:44:00,
2013-06-17 08:49:00,76.0,69.8,29.93,NNE,20,1.0,3.0,81,0.00,,BKN250,0.00,VWS V14.01,2013-06-17 13:49:00,
2013-06-17 08:54:00,76.5,69.9,29.93,NNE,20,2.0,3.0,80,0.00,,BKN250,0.00,VWS V14.01,2013-06-17 13:54:00,
2013-06-17 08:59:00,77.0,69.6,29.93,NNE,21,3.0,3.0,78,0.00,,BKN250,0.00,VWS V14.01,2013-06-17 13:59:00,
2013-06-17 09:04:00,77.3,68.8,29.93,NNE,21,0.0,0.0,75,0.00,,BKN250,0.00,VWS V14.01,2013-06-17 14:04:00,
2013-06-17 09:09:00,77.4,68.1,29.93,NNW,348,1.0,2.0,73,0.00,,BKN250,0.00,VWS V14.01,2013-06-17 14:09:00,
2013-06-17 09:14:00,77.5,69.3,29.93,NNW,341,1.0,2.0,76,0.00,,BKN250,0.00,VWS V14.01,2013-06-17 14:14:00,
2013-06-17 09:19:00,77.8,68.9,29.93,NNE,19,0.0,1.0,74,0.00,,BKN250,0.00,VWS V14.01,2013-06-17 14:19:00,
2013-06-17 09:24:00,78.3,68.5,29.93,NNE,23,1.0,4.0,72,0.00,,BKN250,0.00,VWS V14.01,2013-06-17 14:24:00,
2013-06-17 09:29:00,78.6,68.8,29.93,NE,41,3.0,5.0,72,0.00,,BKN250,0.00,VWS V14.01,2013-06-17 14:29:00,
2013-06-17 09:34:00,78.8,68.2,29.92,North,354,4.0,6.0,70,0.00,,BKN250,0.00,VWS V14.01,2013-06-17 14:34:00,
2013-06-17 09:39:00,78.8,69.0,29.92,North,350,7.0,7.0,72,0.00,,BKN250,0.00,VWS V14.01,2013-06-17 14:39:00,
2013-06-17 09:44:00,78.8,69.0,29.92,NW,318,1.0,3.0,72,0.00,,BKN250,0.00,VWS V14.01,2013-06-17 14:44:00,
2013-06-17 09:49:00,79.0,69.6,29.92,NE,43,1.0,3.0,73,0.00,,BKN250,0.00,VWS V14.01,2013-06-17 14:49:00,
2013-06-17 09:54:00,79.4,69.2,29.92,NNW,341,4.0,6.0,71,0.00,,BKN250,0.00,VWS V14.01,2013-06-17 14:54:00,
2013-06-17 09:59:00,79.9,69.2,29.92,NNE,21,3.0,4.0,70,0.00,,BKN250,0.00,VWS V14.01,2013-06-17 14:59:00,
2013-06-17 10:05:00,80.4,69.3,29.92,NNE,18,0.0,0.0,69,0.00,,BKN250,0.00,VWS V14.01,2013-06-17 15:05:00,
2013-06-17 10:10:00,80.1,68.6,29.92,WNW,295,2.0,4.0,68,0.00,,BKN250,0.00,VWS V14.01,2013-06-17 15:10:00,
2013-06-17 10:15:00,80.1,68.6,29.92,WNW,301,1.0,3.0,68,0.00,,BKN250,0.00,VWS V14.01,2013-06-17 15:15:00,
2013-06-17 10:20:00,80.5,68.1,29.92,WNW,293,5.0,7.0,66,0.00,,BKN250,0.00,VWS V14.01,2013-06-17 15:20:00,
2013-06-17 10:25:00,80.0,68.1,29.92,WNW,286,2.0,3.0,67,0.00,,BKN250,0.00,VWS V14.01,2013-06-17 15:25:00,
2013-06-17 10:30:00,79.6,68.1,29.93,WNW,289,2.0,4.0,68,0.00,,BKN250,0.00,VWS V14.01,2013-06-17 15:30:00,
2013-06-17 10:35:00,79.9,69.2,29.92,NE,41,2.0,2.0,70,0.00,,BKN250,0.00,VWS V14.01,2013-06-17 15:35:00,
2013-06-17 10:40:00,80.6,68.6,29.92,NNW,344,0.0,2.0,67,0.00,,BKN250,0.00,VWS V14.01,2013-06-17 15:40:00,
2013-06-17 10:45:00,80.6,69.1,29.93,WNW,302,1.0,3.0,68,0.00,,BKN250,0.00,VWS V14.01,2013-06-17 15:45:00,
2013-06-17 10:50:00,81.1,67.8,29.93,North,11,4.0,4.0,64,0.00,,BKN250,0.00,VWS V14.01,2013-06-17 15:50:00,
2013-06-17 10:55:00,81.1,67.3,29.93,NW,312,2.0,4.0,63,0.00,,BKN250,0.00,VWS V14.01,2013-06-17 15:55:00,
2013-06-17 11:00:00,81.1,65.4,29.93,North,10,4.0,7.0,59,0.00,,BKN250,0.00,VWS V14.01,2013-06-17 16:00:00,
2013-06-17 11:05:00,81.5,65.3,29.93,NE,39,4.0,6.0,58,0.00,,BKN250,0.00,VWS V14.01,2013-06-17 16:05:00,
2013-06-17 11:10:00,81.7,66.5,29.93,NNE,16,2.0,4.0,60,0.00,,BKN250,0.00,VWS V14.01,2013-06-17 16:10:00,
2013-06-17 11:15:00,82.0,65.3,29.93,NE,43,3.0,4.0,57,0.00,,BKN250,0.00,VWS V14.01,2013-06-17 16:15:00,
2013-06-17 11:20:00,82.1,65.9,29.93,NE,37,3.0,5.0,58,0.00,,BKN250,0.00,VWS V14.01,2013-06-17 16:20:00,
2013-06-17 11:25:00,82.2,63.4,29.93,South,191,1.0,4.0,53,0.00,,BKN250,0.00,VWS V14.01,2013-06-17 16:25:00,
2013-06-17 11:30:00,82.3,61.8,29.93,NW,326,1.0,3.0,50,0.00,,BKN250,0.00,VWS V14.01,2013-06-17 16:30:00,
2013-06-17 11:35:00,82.5,62.0,29.93,NNE,25,4.0,5.0,50,0.00,,BKN250,0.00,VWS V14.01,2013-06-17 16:35:00,
2013-06-17 11:40:00,82.8,61.7,29.93,West,276,2.0,4.0,49,0.00,,BKN250,0.00,VWS V14.01,2013-06-17 16:40:00,
2013-06-17 11:45:00,83.1,61.4,29.93,NNE,27,1.0,3.0,48,0.00,,BKN250,0.00,VWS V14.01,2013-06-17 16:45:00,
2013-06-17 11:50:00,83.6,60.7,29.93,North,349,2.0,4.0,46,0.00,,BKN250,0.00,VWS V14.01,2013-06-17 16:50:00,
2013-06-17 11:55:00,83.7,55.4,29.93,NNE,31,2.0,6.0,38,0.00,,SCT250,0.00,VWS V14.01,2013-06-17 16:55:00,
2013-06-17 12:00:00,83.8,54.8,29.93,NNE,20,6.0,7.0,37,0.00,,SCT250,0.00,VWS V14.01,2013-06-17 17:00:00,
2013-06-17 12:05:00,83.5,55.2,29.93,NW,305,1.0,6.0,38,0.00,,SCT250,0.00,VWS V14.01,2013-06-17 17:05:00,
2013-06-17 12:10:00,83.6,56.0,29.93,North,359,1.0,5.0,39,0.00,,SCT250,0.00,VWS V14.01,2013-06-17 17:10:00,
2013-06-17 12:15:00,84.0,57.1,29.93,North,359,5.0,8.0,40,0.00,,SCT250,0.00,VWS V14.01,2013-06-17 17:15:00,
2013-06-17 12:20:00,83.9,57.0,29.93,North,11,4.0,9.0,40,0.00,,SCT250,0.00,VWS V14.01,2013-06-17 17:20:00,
2013-06-17 12:25:00,83.7,56.1,29.93,North,4,7.0,10.0,39,0.00,,SCT250,0.00,VWS V14.01,2013-06-17 17:25:00,
2013-06-17 12:30:00,83.7,59.5,29.93,NNE,29,1.0,3.0,44,0.00,,SCT250,0.00,VWS V14.01,2013-06-17 17:30:00,
2013-06-17 12:35:00,84.4,57.5,29.93,North,4,6.0,10.0,40,0.00,,SCT250,0.00,VWS V14.01,2013-06-17 17:35:00,
2013-06-17 12:40:00,84.5,60.2,29.93,NNE,20,8.0,11.0,44,0.00,,SCT250,0.00,VWS V14.01,2013-06-17 17:40:00,
2013-06-17 12:45:00,84.3,58.7,29.93,NW,305,3.0,6.0,42,0.00,,SCT250,0.00,VWS V14.01,2013-06-17 17:45:00,
2013-06-17 12:50:00,84.6,59.7,29.92,NNE,17,6.0,9.0,43,0.00,,SCT250,0.00,VWS V14.01,2013-06-17 17:50:00,
2013-06-17 12:55:00,84.7,58.4,29.93,North,359,6.0,10.0,41,0.00,,SCT250,0.00,VWS V14.01,2013-06-17 17:55:00,
2013-06-17 13:00:00,85.0,58.7,29.93,NNW,347,1.0,7.0,41,0.00,,SCT250,0.00,VWS V14.01,2013-06-17 18:00:00,
2013-06-17 13:05:00,85.6,57.8,29.93,NNE,16,6.0,6.0,39,0.00,,SCT250,0.00,VWS V14.01,2013-06-17 18:05:00,
2013-06-17 13:10:00,85.3,59.0,29.93,NW,325,3.0,7.0,41,0.00,,SCT250,0.00,VWS V14.01,2013-06-17 18:10:00,
2013-06-17 13:15:00,85.5,61.1,29.93,NE,39,0.0,4.0,44,0.00,,SCT250,0.00,VWS V14.01,2013-06-17 18:15:00,
2013-06-17 13:20:00,85.7,59.3,29.93,NNE,17,6.0,11.0,41,0.00,,SCT250,0.00,VWS V14.01,2013-06-17 18:20:00,
2013-06-17 13:25:00,85.8,58.0,29.92,NW,317,3.0,8.0,39,0.00,,SCT250,0.00,VWS V14.01,2013-06-17 18:25:00,
2013-06-17 13:30:00,86.0,59.6,29.92,North,4,2.0,8.0,41,0.00,,SCT250,0.00,VWS V14.01,2013-06-17 18:30:00,
2013-06-17 13:35:00,86.2,59.1,29.92,North,4,5.0,7.0,40,0.00,,SCT250,0.00,VWS V14.01,2013-06-17 18:35:00,
2013-06-17 13:40:00,86.6,60.1,29.92,North,4,2.0,3.0,41,0.00,,SCT250,0.00,VWS V14.01,2013-06-17 18:40:00,
2013-06-17 13:45:00,86.4,59.2,29.92,NNE,33,1.0,2.0,40,0.00,,SCT250,0.00,VWS V14.01,2013-06-17 18:45:00,
2013-06-17 13:50:00,86.5,57.9,29.92,North,4,0.0,4.0,38,0.00,,SCT250,0.00,VWS V14.01,2013-06-17 18:50:00,
2013-06-17 13:55:00,86.8,60.3,29.92,West,268,3.0,3.0,41,0.00,,SCT250,0.00,VWS V14.01,2013-06-17 18:55:00,
2013-06-17 14:00:00,86.8,59.6,29.92,NE,35,1.0,3.0,40,0.00,,SCT250,0.00,VWS V14.01,2013-06-17 19:00:00,
2013-06-17 14:05:00,87.2,60.7,29.92,NW,325,3.0,5.0,41,0.00,,SCT250,0.00,VWS V14.01,2013-06-17 19:05:00,
2013-06-17 14:10:00,86.9,57.5,29.92,NNE,15,6.0,7.0,37,0.00,,SCT250,0.00,VWS V14.01,2013-06-17 19:10:00,
2013-06-17 14:15:00,86.9,60.4,29.92,WNW,292,1.0,3.0,41,0.00,,SCT250,0.00,VWS V14.01,2013-06-17 19:15:00,
2013-06-17 14:20:00,87.6,60.3,29.92,NNE,27,4.0,4.0,40,0.00,,SCT250,0.00,VWS V14.01,2013-06-17 19:20:00,
2013-06-17 14:26:00,87.8,59.8,29.92,North,354,1.0,3.0,39,0.00,,SCT250,0.00,VWS V14.01,2013-06-17 19:26:00,
2013-06-17 14:31:00,87.9,59.2,29.92,NNW,343,2.0,2.0,38,0.00,,SCT250,0.00,VWS V14.01,2013-06-17 19:31:00,
2013-06-17 14:36:00,88.1,57.8,29.91,NW,326,2.0,2.0,36,0.00,,SCT250,0.00,VWS V14.01,2013-06-17 19:36:00,
2013-06-17 14:41:00,87.9,56.9,29.91,NE,43,3.0,7.0,35,0.00,,SCT250,0.00,VWS V14.01,2013-06-17 19:41:00,
2013-06-17 14:46:00,87.6,56.6,29.91,NE,43,3.0,7.0,35,0.00,,SCT250,0.00,VWS V14.01,2013-06-17 19:46:00,
2013-06-17 14:51:00,87.6,58.9,29.90,WNW,299,1.0,3.0,38,0.00,,SCT250,0.00,VWS V14.01,2013-06-17 19:51:00,
2013-06-17 14:56:00,88.0,58.5,29.90,NNE,23,1.0,3.0,37,0.00,,SCT250,0.00,VWS V14.01,2013-06-17 19:56:00,
2013-06-17 15:01:00,88.5,59.7,29.90,NW,316,1.0,3.0,38,0.00,,SCT250,0.00,VWS V14.01,2013-06-17 20:01:00,
2013-06-17 15:06:00,88.3,58.0,29.90,NNW,345,2.0,4.0,36,0.00,,SCT250,0.00,VWS V14.01,2013-06-17 20:06:00,
2013-06-17 15:11:00,88.3,59.5,29.90,North,4,2.0,4.0,38,0.00,,SCT250,0.00,VWS V14.01,2013-06-17 20:11:00,
2013-06-17 15:16:00,88.2,57.9,29.90,North,4,3.0,5.0,36,0.00,,SCT250,0.00,VWS V14.01,2013-06-17 20:16:00,
2013-06-17 15:21:00,88.5,58.2,29.90,NNE,27,2.0,4.0,36,0.00,,SCT250,0.00,VWS V14.01,2013-06-17 20:21:00,
2013-06-17 15:26:00,88.7,59.1,29.90,NW,307,2.0,3.0,37,0.00,,SCT250,0.00,VWS V14.01,2013-06-17 20:26:00,
2013-06-17 15:31:00,88.7,59.1,29.89,NW,313,0.0,4.0,37,0.00,,SCT250,0.00,VWS V14.01,2013-06-17 20:31:00,
2013-06-17 15:36:00,88.5,57.4,29.89,North,4,3.0,7.0,35,0.00,,SCT250,0.00,VWS V14.01,2013-06-17 20:36:00,
2013-06-17 15:41:00,88.3,57.2,29.89,NE,43,6.0,7.0,35,0.00,,SCT250,0.00,VWS V14.01,2013-06-17 20:41:00,
2013-06-17 15:46:00,88.1,55.4,29.89,North,11,1.0,3.0,33,0.00,,SCT250,0.00,VWS V14.01,2013-06-17 20:46:00,
2013-06-17 15:51:00,88.1,55.4,29.89,North,4,2.0,2.0,33,0.00,,SCT250,0.00,VWS V14.01,2013-06-17 20:51:00,
2013-06-17 15:56:00,88.4,59.6,29.89,North,350,2.0,5.0,38,0.00,,SCT250,0.00,VWS V14.01,2013-06-17 20:56:00,
2013-06-17 16:01:00,88.7,59.1,29.89,NE,38,4.0,4.0,37,0.00,,SCT250,0.00,VWS V14.01,2013-06-17 21:01:00,
2013-06-17 16:06:00,88.7,59.1,29.89,NNE,21,2.0,4.0,37,0.00,,SCT250,0.00,VWS V14.01,2013-06-17 21:06:00,
2013-06-17 16:11:00,88.9,60.0,29.89,NNE,20,2.0,3.0,38,0.00,,SCT250,0.00,VWS V14.01,2013-06-17 21:11:00,
2013-06-17 16:16:00,88.7,56.8,29.89,NNE,25,3.0,5.0,34,0.00,,SCT250,0.00,VWS V14.01,2013-06-17 21:16:00,
2013-06-17 16:34:00,88.8,57.7,29.89,NNE,19,4.0,8.0,35,0.00,,SCT250,0.00,VWS V14.01,2013-06-17 21:34:00,
2013-06-17 16:39:00,88.4,57.3,29.89,NNE,26,1.0,4.0,35,0.00,,SCT250,0.00,VWS V14.01,2013-06-17 21:39:00,
2013-06-17 16:44:00,88.1,57.0,29.88,North,354,3.0,5.0,35,0.00,,SCT250,0.00,VWS V14.01,2013-06-17 21:44:00,
2013-06-17 16:49:00,88.0,56.9,29.88,WNW,288,2.0,4.0,35,0.00,,SCT250,0.00,VWS V14.01,2013-06-17 21:49:00,
2013-06-17 16:54:00,88.0,56.9,29.88,NW,306,4.0,5.0,35,0.00,,SCT250,0.00,VWS V14.01,2013-06-17 21:54:00,
2013-06-17 16:59:00,88.1,58.6,29.89,NNE,27,4.0,5.0,37,0.00,,SCT250,0.00,VWS V14.01,2013-06-17 21:59:00,
2013-06-17 17:04:00,87.9,58.4,29.89,NNE,16,2.0,5.0,37,0.00,,SCT250,0.00,VWS V14.01,2013-06-17 22:04:00,
2013-06-17 17:09:00,87.8,56.0,29.89,North,8,8.0,9.0,34,0.00,,SCT250,0.00,VWS V14.01,2013-06-17 22:09:00,
2013-06-17 17:14:00,87.6,55.8,29.88,North,4,4.0,6.0,34,0.00,,SCT250,0.00,VWS V14.01,2013-06-17 22:14:00,
2013-06-17 17:19:00,87.5,56.5,29.88,NW,306,3.0,7.0,35,0.00,,SCT250,0.00,VWS V14.01,2013-06-17 22:19:00,
2013-06-17 17:24:00,87.1,56.2,29.88,NNE,23,4.0,7.0,35,0.00,,SCT250,0.00,VWS V14.01,2013-06-17 22:24:00,
2013-06-17 17:29:00,86.9,56.8,29.88,NNW,342,1.0,6.0,36,0.00,,SCT250,0.00,VWS V14.01,2013-06-17 22:29:00,
2013-06-17 17:34:00,86.5,57.9,29.88,NNE,18,2.0,4.0,38,0.00,,SCT250,0.00,VWS V14.01,2013-06-17 22:34:00,
2013-06-17 17:39:00,86.3,57.0,29.88,North,354,1.0,8.0,37,0.00,,SCT250,0.00,VWS V14.01,2013-06-17 22:39:00,
2013-06-17 17:44:00,86.2,56.1,29.88,North,359,4.0,7.0,36,0.00,,SCT250,0.00,VWS V14.01,2013-06-17 22:44:00,
2013-06-17 17:50:00,86.0,58.2,29.88,North,8,3.0,4.0,39,0.00,,SCT250,0.00,VWS V14.01,2013-06-17 22:50:00,
2013-06-17 17:55:00,85.8,59.4,29.88,NW,319,1.0,4.0,41,0.00,,SCT250,0.00,VWS V14.01,2013-06-17 22:55:00,
2013-06-17 18:00:00,85.6,58.5,29.88,NNW,347,1.0,4.0,40,0.00,,SCT250,0.00,VWS V14.01,2013-06-17 23:00:00,
2013-06-17 18:05:00,85.5,58.5,29.88,North,354,3.0,6.0,40,0.00,,SCT250,0.00,VWS V14.01,2013-06-17 23:05:00,
2013-06-17 18:10:00,85.5,57.0,29.87,NNE,18,7.0,8.0,38,0.00,,SCT250,0.00,VWS V14.01,2013-06-17 23:10:00,
2013-06-17 18:15:00,85.6,57.1,29.87,NNE,21,4.0,7.0,38,0.00,,SCT250,0.00,VWS V14.01,2013-06-17 23:15:00,
2013-06-17 18:20:00,85.6,57.1,29.87,NNW,343,5.0,5.0,38,0.00,,SCT250,0.00,VWS V14.01,2013-06-17 23:20:00,
2013-06-17 18:25:00,85.5,56.3,29.86,NNE,15,3.0,3.0,37,0.00,,SCT250,0.00,VWS V14.01,2013-06-17 23:25:00,
2013-06-17 18:30:00,85.5,57.7,29.86,NE,40,0.0,3.0,39,0.00,,SCT250,0.00,VWS V14.01,2013-06-17 23:30:00,
2013-06-17 18:35:00,85.5,56.3,29.86,NNE,13,2.0,7.0,37,0.00,,SCT250,0.00,VWS V14.01,2013-06-17 23:35:00,
2013-06-17 18:40:00,85.3,55.3,29.86,North,354,3.0,6.0,36,0.00,,SCT250,0.00,VWS V14.01,2013-06-17 23:40:00,
2013-06-17 18:45:00,85.2,55.3,29.87,NNW,343,2.0,4.0,36,0.00,,SCT250,0.00,VWS V14.01,2013-06-17 23:45:00,
2013-06-17 18:50:00,85.1,55.9,29.87,North,359,0.0,4.0,37,0.00,,SCT250,0.00,VWS V14.01,2013-06-17 23:50:00,
2013-06-17 18:55:00,84.9,55.8,29.87,NNE,16,0.0,3.0,37,0.00,,SCT250,0.00,VWS V14.01,2013-06-17 23:55:00,
2013-06-17 19:00:00,84.9,54.2,29.87,NNE,12,4.0,5.0,35,0.00,,SCT250,0.00,VWS V14.01,2013-06-18 00:00:00,
2013-06-17 19:05:00,84.8,54.1,29.87,NNE,13,2.0,4.0,35,0.00,,SCT250,0.00,VWS V14.01,2013-06-18 00:05:00,
2013-06-17 19:10:00,84.8,54.9,29.87,NNE,18,2.0,5.0,36,0.00,,SCT250,0.00,VWS V14.01,2013-06-18 00:10:00,
2013-06-17 19:15:00,84.7,55.6,29.87,NNE,14,1.0,3.0,37,0.00,,SCT250,0.00,VWS V14.01,2013-06-18 00:15:00,
2013-06-17 19:20:00,84.6,55.5,29.87,NNE,12,1.0,5.0,37,0.00,,SCT250,0.00,VWS V14.01,2013-06-18 00:20:00,
2013-06-17 19:25:00,84.5,55.4,29.87,North,359,4.0,4.0,37,0.00,,SCT250,0.00,VWS V14.01,2013-06-18 00:25:00,
2013-06-17 19:30:00,84.3,54.5,29.86,North,4,0.0,3.0,36,0.00,,SCT250,0.00,VWS V14.01,2013-06-18 00:30:00,
2013-06-17 19:35:00,84.1,55.8,29.87,NNE,16,3.0,3.0,38,0.00,,SCT250,0.00,VWS V14.01,2013-06-18 00:35:00,
2013-06-17 19:40:00,84.0,57.1,29.87,NNE,15,0.0,0.0,40,0.00,,SCT250,0.00,VWS V14.01,2013-06-18 00:40:00,
2013-06-17 19:45:00,83.7,56.1,29.87,NNE,15,0.0,2.0,39,0.00,,SCT250,0.00,VWS V14.01,2013-06-18 00:45:00,
2013-06-17 19:50:00,83.5,58.7,29.87,NNE,15,0.0,0.0,43,0.00,,SCT250,0.00,VWS V14.01,2013-06-18 00:50:00,
2013-06-17 19:55:00,83.3,58.5,29.87,NNE,15,0.0,0.0,43,0.00,,SCT250,0.00,VWS V14.01,2013-06-18 00:55:00,
2013-06-17 20:00:00,83.0,58.9,29.87,NNE,15,0.0,0.0,44,0.00,,SCT250,0.00,VWS V14.01,2013-06-18 01:00:00,
2013-06-17 20:05:00,82.7,59.2,29.87,NNE,15,0.0,0.0,45,0.00,,SCT250,0.00,VWS V14.01,2013-06-18 01:05:00,
2013-06-17 20:10:00,82.3,59.5,29.87,NNE,15,0.0,0.0,46,0.00,,SCT250,0.00,VWS V14.01,2013-06-18 01:10:00,
2013-06-17 20:15:00,82.0,59.2,29.87,NNE,15,0.0,0.0,46,0.00,,SCT250,0.00,VWS V14.01,2013-06-18 01:15:00,
2013-06-17 20:20:00,81.7,58.3,29.87,NNE,15,0.0,0.0,45,0.00,,SCT250,0.00,VWS V14.01,2013-06-18 01:20:00,
2013-06-17 20:25:00,81.4,59.3,29.87,NNE,15,0.0,0.0,47,0.00,,SCT250,0.00,VWS V14.01,2013-06-18 01:25:00,
2013-06-17 20:30:00,81.1,59.0,29.87,NNE,15,0.0,0.0,47,0.00,,SCT250,0.00,VWS V14.01,2013-06-18 01:30:00,
2013-06-17 20:35:00,80.7,58.6,29.87,NNE,15,0.0,0.0,47,0.00,,SCT250,0.00,VWS V14.01,2013-06-18 01:35:00,
2013-06-17 20:40:00,80.3,58.8,29.87,NNE,15,0.0,0.0,48,0.00,,SCT250,0.00,VWS V14.01,2013-06-18 01:40:00,
2013-06-17 20:45:00,80.0,59.1,29.87,NNE,15,0.0,0.0,49,0.00,,SCT250,0.00,VWS V14.01,2013-06-18 01:45:00,
2013-06-17 20:50:00,79.7,58.9,29.87,NNE,15,0.0,0.0,49,0.00,,SCT250,0.00,VWS V14.01,2013-06-18 01:50:00,
2013-06-17 20:56:00,79.4,58.6,29.87,NNE,15,0.0,0.0,49,0.00,,SCT250,0.00,VWS V14.01,2013-06-18 01:56:00,
2013-06-17 21:01:00,79.0,58.8,29.87,NNE,15,0.0,0.0,50,0.00,,SCT250,0.00,VWS V14.01,2013-06-18 02:01:00,
2013-06-17 21:06:00,78.7,58.5,29.87,NNE,15,0.0,0.0,50,0.00,,SCT250,0.00,VWS V14.01,2013-06-18 02:06:00,
2013-06-17 21:11:00,78.4,58.2,29.87,NNE,15,0.0,0.0,50,0.00,,SCT250,0.00,VWS V14.01,2013-06-18 02:11:00,
2013-06-17 21:16:00,78.2,58.1,29.87,NNE,15,0.0,0.0,50,0.00,,SCT250,0.00,VWS V14.01,2013-06-18 02:16:00,
2013-06-17 21:21:00,78.0,57.9,29.88,NNE,15,0.0,0.0,50,0.00,,SCT250,0.00,VWS V14.01,2013-06-18 02:21:00,
2013-06-17 21:26:00,77.9,57.8,29.88,NNE,15,0.0,0.0,50,0.00,,SCT250,0.00,VWS V14.01,2013-06-18 02:26:00,
2013-06-17 21:31:00,77.9,57.2,29.88,NNE,15,0.0,0.0,49,0.00,,SCT250,0.00,VWS V14.01,2013-06-18 02:31:00,
2013-06-17 21:36:00,78.0,56.7,29.88,NNE,15,0.0,0.0,48,0.00,,SCT250,0.00,VWS V14.01,2013-06-18 02:36:00,
2013-06-17 21:41:00,78.0,57.3,29.89,NNE,15,0.0,0.0,49,0.00,,SCT250,0.00,VWS V14.01,2013-06-18 02:41:00,
2013-06-17 21:46:00,77.9,57.8,29.89,NNE,15,2.0,2.0,50,0.00,,SCT250,0.00,VWS V14.01,2013-06-18 02:46:00,
2013-06-17 21:51:00,78.0,57.3,29.89,NNE,15,0.0,2.0,49,0.00,,SCT250,0.00,VWS V14.01,2013-06-18 02:51:00,
2013-06-17 21:56:00,78.0,58.4,29.90,North,8,2.0,3.0,51,0.00,,SCT250,0.00,VWS V14.01,2013-06-18 02:56:00,
2013-06-17 22:01:00,78.0,59.5,29.90,North,11,0.0,2.0,53,0.00,,SCT250,0.00,VWS V14.01,2013-06-18 03:01:00,
2013-06-17 22:06:00,77.8,59.3,29.90,North,11,1.0,2.0,53,0.00,,SCT250,0.00,VWS V14.01,2013-06-18 03:06:00,
2013-06-17 22:11:00,77.6,59.7,29.90,North,11,1.0,2.0,54,0.00,,SCT250,0.00,VWS V14.01,2013-06-18 03:11:00,
2013-06-17 22:16:00,77.4,59.5,29.91,North,354,3.0,3.0,54,0.00,,SCT250,0.00,VWS V14.01,2013-06-18 03:16:00,
2013-06-17 22:21:00,77.2,59.3,29.91,NNE,19,0.0,2.0,54,0.00,,SCT250,0.00,VWS V14.01,2013-06-18 03:21:00,
2013-06-17 22:26:00,77.0,59.6,29.91,NNE,19,1.0,4.0,55,0.00,,SCT250,0.00,VWS V14.01,2013-06-18 03:26:00,
2013-06-17 22:31:00,77.0,59.1,29.91,NNE,18,0.0,4.0,54,0.00,,SCT250,0.00,VWS V14.01,2013-06-18 03:31:00,
2013-06-17 22:36:00,77.0,59.1,29.91,North,10,3.0,4.0,54,0.00,,SCT250,0.00,VWS V14.01,2013-06-18 03:36:00,
2013-06-17 22:41:00,77.0,59.1,29.92,NNW,348,3.0,5.0,54,0.00,,SCT250,0.00,VWS V14.01,2013-06-18 03:41:00,
2013-06-17 22:46:00,76.7,59.3,29.92,NNE,18,4.0,4.0,55,0.00,,SCT250,0.00,VWS V14.01,2013-06-18 03:46:00,
2013-06-17 22:51:00,76.6,59.2,29.92,NE,45,3.0,4.0,55,0.00,,FEW250,0.00,VWS V14.01,2013-06-18 03:51:00,
2013-06-17 22:56:00,76.4,59.1,29.92,NNE,14,1.0,3.0,55,0.00,,FEW250,0.00,VWS V14.01,2013-06-18 03:56:00,
2013-06-17 23:01:00,76.4,59.1,29.92,North,359,1.0,5.0,55,0.00,,FEW250,0.00,VWS V14.01,2013-06-18 04:01:00,
2013-06-17 23:06:00,76.2,59.4,29.92,NNE,23,1.0,3.0,56,0.00,,FEW250,0.00,VWS V14.01,2013-06-18 04:06:00,
2013-06-17 23:11:00,76.1,59.3,29.92,NNE,16,1.0,4.0,56,0.00,,FEW250,0.00,VWS V14.01,2013-06-18 04:11:00,
2013-06-17 23:16:00,75.9,59.1,29.92,North,354,1.0,4.0,56,0.00,,FEW250,0.00,VWS V14.01,2013-06-18 04:16:00,
2013-06-17 23:21:00,75.8,59.0,29.92,North,9,1.0,4.0,56,0.00,,FEW250,0.00,VWS V14.01,2013-06-18 04:21:00,
2013-06-17 23:26:00,75.7,59.4,29.92,NNE,16,3.0,3.0,57,0.00,,FEW250,0.00,VWS V14.01,2013-06-18 04:26:00,
2013-06-17 23:31:00,75.7,59.4,29.92,North,4,4.0,5.0,57,0.00,,FEW250,0.00,VWS V14.01,2013-06-18 04:31:00,
2013-06-17 23:36:00,75.7,58.9,29.92,NNE,14,3.0,6.0,56,0.00,,FEW250,0.00,VWS V14.01,2013-06-18 04:36:00,
2013-06-17 23:41:00,75.7,58.4,29.92,NNE,12,3.0,5.0,55,0.00,,FEW250,0.00,VWS V14.01,2013-06-18 04:41:00,
2013-06-17 23:46:00,75.5,58.2,29.92,North,4,4.0,6.0,55,0.00,,FEW250,0.00,VWS V14.01,2013-06-18 04:46:00,
2013-06-17 23:51:00,75.3,58.0,29.92,NE,37,4.0,6.0,55,0.00,,FEW250,0.00,VWS V14.01,2013-06-18 04:51:00,
2013-06-17 23:56:00,75.1,58.3,29.92,NNE,14,3.0,5.0,56,0.00,,FEW250,0.00,VWS V14.01,2013-06-18 04:56:00,